LAGEOS 2

Last updated on Wed Jun 24 2026 00:03:44 GMT+0000 (Coordinated Universal Time)

1 22195U 92070B 26155.50225823 -.00000009 00000+0 00000+0 0 9991 2 22195 52.6594 274.6781 0137809 181.7676 222.9411 6.47293610794606
UTC large
Height (km)
Speed (km/s)
/
Latitude / Longitude
Inclination (degrees)
Orbital Period (minutes)
Azimuth
Elevation
Range (km)
Doppler Factor

Next 0 passes for location: London (51.5072 / 0.1276)

No passes found over London.
LAGEOS 2